Weather History for KMKN - January, 2014

Change the Weather History Date:

Sunday, January 26, 2014

  Actual Average (KSEP) Record (KSEP)
Temperature  
Mean Temperature 62 °F -  
Max Temperature 77 °F 58 °F 83 °F (1953)
Min Temperature 48 °F 32 °F 5 °F (1943)
Degree Days  
Heating Degree Days 2    
Growing Degree Days 12 (Base 50)    
Moisture  
Dew Point 22 °F    
Average Humidity 24    
Maximum Humidity 38    
Minimum Humidity 11    
Precipitation  
Precipitation 0.00 in - - ()
Sea Level Pressure  
Sea Level Pressure 29.81 in    
Wind  
Wind Speed 10 mph (WSW)    
Max Wind Speed 21 mph    
Max Gust Speed 33 mph    
Visibility 10 miles    
Events      
Averages and records for this station are not official NWS values.
T = Trace of Precipitation, MM = Missing Value Source: NWS Daily Summary

Daily Weather History Graph

Daily Weather History Graph

Search for Another Location

Airport or City:

Trip Planner

Search our weather history database for the weather conditions in past years. The results will help you decide how hot, cold, wet, or windy it might be!

Date:

Astronomy

Jan. 26, 2014 Rise Set
Actual Time 7:31 AM CST 6:03 PM CST
Civil Twilight 7:05 AM CST 6:28 PM CST
Nautical Twilight 6:35 AM CST 6:58 PM CST
Astronomical Twilight 6:06 AM CST 7:27 PM CST
Moon 3:09 AM CST (1/26) 1:55 PM CST (1/26)
Length of Visible Light 11h 23m
Length of Day
10h 31m
Waning Crescent, 23% of the Moon is Illuminated
Jan 26
Waning Crescent
Jan 30
New
Feb 6
First Quarter
Feb 14
Full
Feb 22
Last Quarter

Hourly Weather History & Observations

Time (CST) Temp. Dew Point Humidity Pressure Visibility Wind Dir Wind Speed Gust Speed Precip Events Conditions
12:15 AM 54.0 °F 23.7 °F 31% 29.98 in 10.0 mi SSW 9.2 mph - N/A   Mostly Cloudy
12:35 AM 54.7 °F 25.5 °F 32% 29.97 in 10.0 mi South 10.4 mph - N/A   Overcast
12:55 AM 57.7 °F 23.9 °F 27% 29.97 in 10.0 mi SSW 9.2 mph - N/A   Overcast
1:15 AM 56.5 °F 25.5 °F 30% 29.96 in 10.0 mi South 12.7 mph - N/A   Overcast
1:35 AM 56.3 °F 25.3 °F 30% 29.95 in 10.0 mi South 10.4 mph - N/A   Overcast
1:55 AM 57.2 °F 24.1 °F 28% 29.94 in 10.0 mi SSW 9.2 mph - N/A   Overcast
2:15 AM 57.2 °F 23.5 °F 27% 29.93 in 10.0 mi SSW 12.7 mph - N/A   Overcast
2:35 AM 56.5 °F 23.9 °F 28% 29.93 in 10.0 mi SSW 11.5 mph - N/A   Overcast
2:55 AM 55.6 °F 24.4 °F 30% 29.92 in 10.0 mi SSW 10.4 mph - N/A   Overcast
3:15 AM 55.8 °F 23.9 °F 29% 29.91 in 10.0 mi SSW 11.5 mph - N/A   Overcast
3:35 AM 55.6 °F 24.3 °F 30% 29.91 in 10.0 mi SSW 8.1 mph - N/A   Overcast
3:55 AM 54.1 °F 24.8 °F 32% 29.91 in 10.0 mi SSW 5.8 mph - N/A   Overcast
4:15 AM 54.0 °F 24.8 °F 32% 29.90 in 10.0 mi SSW 5.8 mph - N/A   Overcast
4:35 AM 53.6 °F 25.3 °F 34% 29.89 in 10.0 mi SSW 5.8 mph - N/A   Overcast
4:55 AM 55.4 °F 23.2 °F 29% 29.89 in 10.0 mi SSW 6.9 mph - N/A   Overcast
5:15 AM 54.7 °F 23.5 °F 30% 29.88 in 10.0 mi SW 8.1 mph - N/A   Overcast
5:35 AM 54.3 °F 23.4 °F 30% 29.88 in 10.0 mi SW 8.1 mph - N/A   Overcast
5:55 AM 53.1 °F 23.5 °F 32% 29.87 in 10.0 mi SW 5.8 mph - N/A   Mostly Cloudy
6:15 AM 51.1 °F 23.7 °F 34% 29.87 in 10.0 mi SSW 6.9 mph - N/A   Scattered Clouds
6:35 AM 49.5 °F 23.7 °F 37% 29.87 in 10.0 mi SSW 4.6 mph - N/A   Scattered Clouds
6:55 AM 48.7 °F 23.7 °F 38% 29.87 in 10.0 mi Calm Calm - N/A   Clear
7:15 AM 49.8 °F 23.0 °F 35% 29.86 in 10.0 mi Calm Calm - N/A   Clear
7:35 AM 49.1 °F 23.2 °F 36% 29.85 in 10.0 mi Calm Calm - N/A   Clear
7:55 AM 48.4 °F 23.4 °F 37% 29.85 in 10.0 mi Calm Calm - N/A   Clear
8:15 AM 48.9 °F 23.4 °F 37% 29.84 in 10.0 mi Calm Calm - N/A   Clear
8:35 AM 50.7 °F 24.1 °F 35% 29.84 in 10.0 mi Calm Calm - N/A   Clear
8:55 AM 54.9 °F 24.1 °F 30% 29.83 in 10.0 mi SSW 8.1 mph - N/A   Clear
9:15 AM 56.8 °F 24.8 °F 29% 29.82 in 10.0 mi SW 8.1 mph 17.3 mph N/A   Clear
9:35 AM 58.1 °F 25.7 °F 29% 29.82 in 10.0 mi SW 11.5 mph 16.1 mph N/A   Clear
9:55 AM 59.0 °F 26.2 °F 29% 29.81 in 10.0 mi SW 16.1 mph 19.6 mph N/A   Clear
10:15 AM 60.4 °F 26.6 °F 28% 29.81 in 10.0 mi SW 16.1 mph 20.7 mph N/A   Clear
10:35 AM 62.1 °F 27.5 °F 27% 29.81 in 10.0 mi WSW 16.1 mph 21.9 mph N/A   Clear
10:55 AM 64.2 °F 27.3 °F 25% 29.80 in 10.0 mi WSW 16.1 mph 26.5 mph N/A   Clear
11:15 AM 65.3 °F 27.3 °F 24% 29.79 in 10.0 mi WSW 20.7 mph 33.4 mph N/A   Clear
11:35 AM 66.2 °F 28.0 °F 24% 29.79 in 10.0 mi WSW 17.3 mph 25.3 mph N/A   Clear
11:55 AM 67.8 °F 28.4 °F 23% 29.78 in 10.0 mi West 18.4 mph 24.2 mph N/A   Clear
12:15 PM 69.3 °F 28.6 °F 22% 29.77 in 10.0 mi WSW 17.3 mph 23.0 mph N/A   Clear
12:35 PM 70.5 °F 29.3 °F 22% 29.75 in 10.0 mi West 12.7 mph 20.7 mph N/A   Clear
12:55 PM 71.2 °F 28.4 °F 20% 29.74 in 10.0 mi WSW 15.0 mph 24.2 mph N/A   Clear
1:15 PM 72.9 °F 27.9 °F 19% 29.72 in 10.0 mi WSW 15.0 mph 25.3 mph N/A   Clear
1:35 PM 73.8 °F 25.7 °F 17% 29.72 in 10.0 mi West 17.3 mph 23.0 mph N/A   Clear
1:55 PM 73.6 °F 22.8 °F 15% 29.70 in 10.0 mi WSW 13.8 mph 20.7 mph N/A   Clear
2:15 PM 75.2 °F 21.6 °F 13% 29.68 in 10.0 mi WSW 16.1 mph 25.3 mph N/A   Clear
2:35 PM 76.3 °F 20.7 °F 12% 29.68 in 10.0 mi WSW 16.1 mph 23.0 mph N/A   Clear
2:55 PM 76.3 °F 21.0 °F 13% 29.68 in 10.0 mi West 13.8 mph 25.3 mph N/A   Clear
3:15 PM 76.3 °F 21.7 °F 13% 29.67 in 10.0 mi West 16.1 mph 27.6 mph N/A   Clear
3:35 PM 76.6 °F 22.3 °F 13% 29.67 in 10.0 mi WSW 13.8 mph 21.9 mph N/A   Clear
3:55 PM 76.8 °F 21.7 °F 13% 29.66 in 10.0 mi West 16.1 mph 25.3 mph N/A   Clear
4:15 PM 77.2 °F 21.0 °F 12% 29.66 in 10.0 mi West 11.5 mph 16.1 mph N/A   Clear
4:35 PM 77.0 °F 17.2 °F 11% 29.66 in 10.0 mi West 16.1 mph 23.0 mph N/A   Clear
4:55 PM 75.4 °F 16.5 °F 11% 29.67 in 10.0 mi WNW 12.7 mph 24.2 mph N/A   Clear
5:15 PM 74.1 °F 16.5 °F 11% 29.68 in 10.0 mi WNW 10.4 mph 16.1 mph N/A   Clear
5:35 PM 72.7 °F 16.7 °F 12% 29.69 in 10.0 mi WNW 10.4 mph 16.1 mph N/A   Clear
5:55 PM 70.3 °F 17.6 °F 13% 29.70 in 10.0 mi NW 9.2 mph - N/A   Clear
6:15 PM 66.9 °F 17.6 °F 15% 29.70 in 10.0 mi NW 5.8 mph - N/A   Clear
6:35 PM 64.9 °F 17.1 °F 16% 29.71 in 10.0 mi NW 3.5 mph - N/A   Clear
6:55 PM 62.8 °F 16.7 °F 17% 29.73 in 10.0 mi WNW 5.8 mph - N/A   Clear
7:15 PM 61.3 °F 16.3 °F 17% 29.74 in 10.0 mi WNW 5.8 mph - N/A   Clear
7:35 PM 59.4 °F 17.2 °F 19% 29.75 in 10.0 mi WNW 5.8 mph - N/A   Clear
7:55 PM 58.5 °F 16.7 °F 20% 29.77 in 10.0 mi West 5.8 mph - N/A   Clear
8:15 PM 58.1 °F 16.7 °F 20% 29.77 in 10.0 mi WNW 6.9 mph - N/A   Clear
8:35 PM 57.0 °F 16.7 °F 21% 29.79 in 10.0 mi West 6.9 mph - N/A   Clear
8:55 PM 56.7 °F 16.5 °F 21% 29.79 in 10.0 mi West 8.1 mph - N/A   Clear
9:15 PM 56.7 °F 16.2 °F 20% 29.80 in 10.0 mi West 6.9 mph - N/A   Clear
9:35 PM 56.5 °F 16.0 °F 20% 29.80 in 10.0 mi WNW 6.9 mph - N/A   Clear
9:55 PM 57.2 °F 15.4 °F 19% 29.80 in 10.0 mi WNW 5.8 mph - N/A   Clear
10:15 PM 56.3 °F 15.6 °F 20% 29.81 in 10.0 mi WNW 6.9 mph - N/A   Clear
10:35 PM 55.6 °F 15.8 °F 21% 29.82 in 10.0 mi WNW 6.9 mph - N/A   Clear
10:55 PM 54.5 °F 16.0 °F 22% 29.82 in 10.0 mi WNW 6.9 mph - N/A   Clear
11:15 PM 53.8 °F 15.8 °F 22% 29.83 in 10.0 mi WNW 5.8 mph - N/A   Clear
11:35 PM 53.2 °F 16.3 °F 23% 29.83 in 10.0 mi WNW 5.8 mph - N/A   Clear
11:55 PM 53.2 °F 16.7 °F 24% 29.84 in 10.0 mi WNW 6.9 mph - N/A   Clear